LNI060 WIII-OEMA

Flight info

Callsign LNI060
Flight time N/A
Altitude 34000
Route RIMTI1B/07L RIMTI M766 SELSU/N0479F360 M766 KAT P570 TVM UL425 ODOLI/N0473F380 UL425 ASPUX N315 SITOL/N0431F280 L883 PUSON/N0469F400 L883 KITUB Y511 ELONU
Aircraft A333/H-SDE3GHIJ2J3J5M1RVWXY/LB2D1

Departure

Time N/A
Airport Soekarno-Hatta International Airport (WIII)

Arrival

Time 2026-05-04 01:07
Airport Prince Mohammad Bin Abdulaziz Airport (OEMA)
Time Latitude Longitude Altitude Speed Heading
2026-05-03 20:15 9.88166 72.66437 33898 ft 480 kts 288°
2026-05-03 20:15 9.90273 72.60010 33899 ft 480 kts 288°
2026-05-03 20:16 9.92383 72.53582 33879 ft 480 kts 288°
2026-05-03 20:16 9.94487 72.47149 33883 ft 481 kts 288°
2026-05-03 20:17 9.96741 72.40768 33878 ft 481 kts 295°
2026-05-03 20:17 10.00109 72.34960 33878 ft 481 kts 302°
2026-05-03 20:18 10.03817 72.29306 33878 ft 482 kts 304°
2026-05-03 20:18 10.07586 72.23684 33878 ft 482 kts 304°
2026-05-03 20:19 10.11344 72.18054 33878 ft 482 kts 304°
2026-05-03 20:19 10.15083 72.12414 33878 ft 482 kts 303°
2026-05-03 20:20 10.18819 72.06761 33878 ft 482 kts 303°
2026-05-03 20:20 10.22549 72.01115 33878 ft 482 kts 303°
2026-05-03 20:21 10.26281 71.95465 33878 ft 482 kts 303°
2026-05-03 20:21 10.30008 71.89819 33878 ft 482 kts 303°
2026-05-03 20:22 10.33740 71.84164 33878 ft 481 kts 303°
2026-05-03 20:22 10.37466 71.78516 33878 ft 481 kts 303°
2026-05-03 20:23 10.41189 71.72870 33878 ft 481 kts 303°
2026-05-03 20:23 10.44908 71.67227 33878 ft 480 kts 303°
2026-05-03 20:24 10.48617 71.61595 33878 ft 480 kts 303°
2026-05-03 20:24 10.52329 71.55954 33878 ft 480 kts 303°
2026-05-03 20:25 10.56035 71.50323 33878 ft 479 kts 303°
2026-05-03 20:25 10.59738 71.44696 33873 ft 479 kts 303°
2026-05-03 20:26 10.63439 71.39065 33869 ft 479 kts 303°
2026-05-03 20:26 10.67113 71.33473 33869 ft 478 kts 303°
2026-05-03 20:27 10.70806 71.27852 33869 ft 478 kts 303°
2026-05-03 20:27 10.74493 71.22231 33869 ft 478 kts 303°
2026-05-03 20:28 10.78182 71.16609 33868 ft 478 kts 303°
2026-05-03 20:28 10.81866 71.10992 33869 ft 477 kts 303°
2026-05-03 20:29 10.85549 71.05374 33869 ft 477 kts 303°
2026-05-03 20:29 10.89223 70.99756 33869 ft 477 kts 303°
2026-05-03 20:30 10.92902 70.94135 33869 ft 477 kts 303°
2026-05-03 20:30 10.96579 70.88520 33869 ft 477 kts 302°
2026-05-03 20:31 11.00251 70.82906 33869 ft 476 kts 302°
2026-05-03 20:31 11.03921 70.77290 33869 ft 476 kts 302°
2026-05-03 20:32 11.07589 70.71676 33869 ft 476 kts 302°
2026-05-03 20:32 11.11253 70.66064 33869 ft 476 kts 302°
2026-05-03 20:33 11.14915 70.60451 33869 ft 476 kts 302°
2026-05-03 20:33 11.18574 70.54840 33869 ft 476 kts 302°
2026-05-03 20:34 11.22235 70.49224 33869 ft 476 kts 302°
2026-05-03 20:34 11.25891 70.43610 33869 ft 475 kts 302°
2026-05-03 20:35 11.29543 70.38003 33869 ft 475 kts 302°
2026-05-03 20:35 11.33194 70.32393 33869 ft 475 kts 302°
2026-05-03 20:36 11.36845 70.26778 33869 ft 475 kts 302°
2026-05-03 20:36 11.40467 70.21208 33869 ft 474 kts 302°
2026-05-03 20:37 11.44110 70.15603 33869 ft 474 kts 302°
2026-05-03 20:37 11.47751 70.09997 33869 ft 474 kts 302°
2026-05-03 20:38 11.51391 70.04388 33869 ft 474 kts 302°
2026-05-03 20:38 11.55028 69.98781 33869 ft 474 kts 302°
2026-05-03 20:39 11.58664 69.93172 33869 ft 474 kts 302°
2026-05-03 20:39 11.62293 69.87569 33869 ft 474 kts 302°
2026-05-03 20:40 11.65904 69.81954 33869 ft 473 kts 302°
2026-05-03 20:40 11.69512 69.76336 33860 ft 473 kts 302°
2026-05-03 20:41 11.73115 69.70721 33860 ft 473 kts 302°
2026-05-03 20:41 11.76722 69.65098 33860 ft 473 kts 302°
2026-05-03 20:42 11.80326 69.59479 33860 ft 473 kts 302°
2026-05-03 20:42 11.83907 69.53891 33860 ft 473 kts 302°
2026-05-03 20:43 11.87508 69.48270 33860 ft 473 kts 302°
2026-05-03 20:43 11.91111 69.42644 33860 ft 473 kts 302°
2026-05-03 20:44 11.94715 69.37015 33860 ft 473 kts 302°
2026-05-03 20:44 11.98311 69.31388 33860 ft 473 kts 302°
2026-05-03 20:45 12.01908 69.25760 33836 ft 473 kts 302°
2026-05-03 20:45 12.05501 69.20134 33833 ft 473 kts 303°
2026-05-03 20:46 12.09095 69.14509 33832 ft 473 kts 302°
2026-05-03 20:46 12.12683 69.08882 33833 ft 472 kts 302°
2026-05-03 20:47 12.16264 69.03262 33833 ft 472 kts 303°
2026-05-03 20:47 12.19854 68.97638 33828 ft 472 kts 303°
2026-05-03 20:48 12.23447 68.92024 33823 ft 472 kts 303°
2026-05-03 20:48 12.27042 68.86407 33822 ft 472 kts 303°
2026-05-03 20:49 12.30635 68.80786 33822 ft 472 kts 303°
2026-05-03 20:49 12.34227 68.75164 33823 ft 472 kts 303°
2026-05-03 20:50 12.37817 68.69540 33823 ft 472 kts 303°
2026-05-03 20:50 12.41405 68.63919 33823 ft 472 kts 303°
2026-05-03 20:51 12.44990 68.58299 33822 ft 471 kts 303°
2026-05-03 20:51 12.48572 68.52679 33822 ft 472 kts 303°
2026-05-03 20:52 12.52153 68.47056 33822 ft 472 kts 303°
2026-05-03 20:52 12.55735 68.41429 33823 ft 472 kts 303°
2026-05-03 20:53 12.59313 68.35808 33823 ft 471 kts 303°
2026-05-03 20:53 12.62891 68.30179 33822 ft 472 kts 303°
2026-05-03 20:54 12.65864 68.25499 33822 ft 472 kts 303°
2026-05-03 20:54 12.71226 68.17052 33823 ft 471 kts 303°
2026-05-03 20:55 12.75379 68.10510 33822 ft 472 kts 303°
2026-05-03 20:55 12.78374 68.05787 33822 ft 472 kts 303°
2026-05-03 20:56 12.81948 68.00150 33823 ft 471 kts 303°
2026-05-03 20:56 12.85541 67.94532 33823 ft 471 kts 303°
2026-05-03 20:57 12.89136 67.88921 33823 ft 471 kts 303°
2026-05-03 20:57 12.92726 67.83306 33834 ft 470 kts 303°
2026-05-03 20:58 12.96312 67.77692 33832 ft 471 kts 303°
2026-05-03 20:58 12.99899 67.72075 33834 ft 471 kts 303°
2026-05-03 20:59 13.03482 67.66455 33830 ft 471 kts 303°
2026-05-03 20:59 13.07045 67.60868 33832 ft 471 kts 303°
2026-05-03 21:00 13.10047 67.56156 33833 ft 471 kts 303°
2026-05-03 21:00 13.14212 67.49616 33841 ft 471 kts 303°
2026-05-03 21:01 13.17793 67.43990 33851 ft 471 kts 303°
2026-05-03 21:01 13.21374 67.38359 33850 ft 471 kts 303°
2026-05-03 21:02 13.24953 67.32727 33850 ft 471 kts 303°
2026-05-03 21:02 13.28535 67.27085 33851 ft 472 kts 303°
2026-05-03 21:03 13.32113 67.21448 33850 ft 471 kts 303°
2026-05-03 21:03 13.35693 67.15806 33850 ft 472 kts 303°
2026-05-03 21:04 13.39273 67.10163 33851 ft 471 kts 303°
2026-05-03 21:04 13.42847 67.04520 33851 ft 471 kts 303°
2026-05-03 21:05 13.46421 66.98873 33841 ft 471 kts 303°
2026-05-03 21:05 13.49991 66.93228 33841 ft 471 kts 303°
2026-05-03 21:06 13.53564 66.87574 33841 ft 471 kts 303°
2026-05-03 21:06 13.57136 66.81921 33841 ft 472 kts 303°
2026-05-03 21:07 13.60710 66.76263 33841 ft 472 kts 303°
2026-05-03 21:07 13.64281 66.70605 33841 ft 472 kts 303°
2026-05-03 21:08 13.67850 66.64946 33841 ft 472 kts 303°
2026-05-03 21:08 13.71418 66.59284 33841 ft 472 kts 303°
2026-05-03 21:09 13.74961 66.53657 33841 ft 472 kts 303°
2026-05-03 21:09 13.78527 66.47992 33841 ft 472 kts 303°
2026-05-03 21:10 13.82094 66.42323 33841 ft 472 kts 303°
2026-05-03 21:10 13.85659 66.36650 33841 ft 472 kts 304°
2026-05-03 21:11 13.89211 66.30993 33842 ft 469 kts 304°
2026-05-03 21:11 13.92749 66.25352 33841 ft 469 kts 304°
2026-05-03 21:12 13.96284 66.19718 33841 ft 469 kts 304°
2026-05-03 21:12 13.99820 66.14078 33841 ft 469 kts 304°
2026-05-03 21:13 14.03353 66.08435 33841 ft 469 kts 304°
2026-05-03 21:13 14.06890 66.02784 33841 ft 469 kts 304°
2026-05-03 21:14 14.10423 65.97137 33841 ft 469 kts 304°
2026-05-03 21:14 14.13954 65.91489 33841 ft 469 kts 304°
2026-05-03 21:15 14.17485 65.85837 33841 ft 469 kts 304°
2026-05-03 21:15 14.21011 65.80187 33841 ft 468 kts 304°
2026-05-03 21:16 14.24532 65.74542 33830 ft 468 kts 304°
2026-05-03 21:16 14.28058 65.68887 33832 ft 469 kts 304°
2026-05-03 21:17 14.30984 65.64191 33831 ft 468 kts 304°
2026-05-03 21:17 14.35076 65.57620 33832 ft 468 kts 304°
2026-05-03 21:18 14.38592 65.51969 33830 ft 468 kts 303°
2026-05-03 21:18 14.42101 65.46322 33832 ft 468 kts 303°
2026-05-03 21:19 14.45613 65.40670 33832 ft 468 kts 303°
2026-05-03 21:19 14.49120 65.35014 33828 ft 468 kts 303°
2026-05-03 21:20 14.52626 65.29361 33818 ft 468 kts 303°
2026-05-03 21:20 14.56133 65.23706 33795 ft 468 kts 303°
2026-05-03 21:21 14.59641 65.18055 33795 ft 467 kts 304°
2026-05-03 21:21 14.63169 65.12419 33794 ft 467 kts 304°
2026-05-03 21:22 14.66705 65.06786 33795 ft 467 kts 304°
2026-05-03 21:22 14.70234 65.01153 33795 ft 467 kts 304°
2026-05-03 21:23 14.73763 64.95513 33794 ft 467 kts 304°
2026-05-03 21:23 14.77287 64.89876 33795 ft 467 kts 304°
2026-05-03 21:24 14.80788 64.84273 33795 ft 467 kts 304°
2026-05-03 21:24 14.84311 64.78629 33795 ft 467 kts 304°
2026-05-03 21:25 14.87829 64.72985 33795 ft 467 kts 304°
2026-05-03 21:25 14.91349 64.67339 33795 ft 467 kts 304°
2026-05-03 21:26 14.94864 64.61697 33795 ft 467 kts 303°
2026-05-03 21:26 14.98378 64.56051 33788 ft 467 kts 303°
2026-05-03 21:27 15.01900 64.50390 33784 ft 468 kts 303°
2026-05-03 21:27 15.05416 64.44733 33787 ft 467 kts 304°
2026-05-03 21:28 15.08926 64.39084 33787 ft 467 kts 304°
2026-05-03 21:28 15.12435 64.33427 33786 ft 467 kts 304°
2026-05-03 21:29 15.15940 64.27777 33785 ft 466 kts 304°
2026-05-03 21:29 15.19445 64.22122 33786 ft 467 kts 304°
2026-05-03 21:30 15.22944 64.16469 33785 ft 466 kts 304°
2026-05-03 21:30 15.26442 64.10817 33786 ft 466 kts 304°
2026-05-03 21:31 15.29918 64.05196 33787 ft 466 kts 304°
2026-05-03 21:31 15.33415 63.99538 33786 ft 466 kts 304°
2026-05-03 21:32 15.36907 63.93885 33785 ft 466 kts 304°
2026-05-03 21:32 15.40400 63.88222 33785 ft 466 kts 304°
2026-05-03 21:33 15.43890 63.82560 33786 ft 466 kts 304°
2026-05-03 21:33 15.47382 63.76890 33785 ft 466 kts 304°
2026-05-03 21:34 15.50869 63.71224 33785 ft 466 kts 304°
2026-05-03 21:34 15.54358 63.65552 33787 ft 466 kts 304°
2026-05-03 21:35 15.57845 63.59882 33787 ft 466 kts 304°
2026-05-03 21:35 15.61330 63.54211 33785 ft 467 kts 304°
2026-05-03 21:36 15.64821 63.48525 33785 ft 467 kts 304°
2026-05-03 21:36 15.68305 63.42843 33785 ft 466 kts 304°
2026-05-03 21:37 15.71785 63.37163 33785 ft 466 kts 304°
2026-05-03 21:37 15.75267 63.31478 33785 ft 467 kts 304°
2026-05-03 21:38 15.78746 63.25790 33785 ft 467 kts 304°
2026-05-03 21:38 15.82226 63.20099 33785 ft 467 kts 304°
2026-05-03 21:39 15.85705 63.14405 33785 ft 467 kts 304°
2026-05-03 21:39 15.89180 63.08711 33785 ft 467 kts 304°
2026-05-03 21:40 15.92659 63.03010 33785 ft 467 kts 303°
2026-05-03 21:40 15.96141 62.97298 33786 ft 468 kts 303°
2026-05-03 21:41 15.99597 62.91623 33786 ft 468 kts 303°
2026-05-03 21:41 16.03072 62.85910 33784 ft 467 kts 304°
2026-05-03 21:42 16.06535 62.80215 33785 ft 465 kts 304°
2026-05-03 21:42 16.09993 62.74527 33786 ft 465 kts 304°
2026-05-03 21:43 16.13450 62.68834 33786 ft 466 kts 304°
2026-05-03 21:43 16.16348 62.64061 33785 ft 466 kts 304°
2026-05-03 21:44 16.20367 62.57428 33785 ft 466 kts 304°
2026-05-03 21:44 16.23262 62.52647 33785 ft 466 kts 303°
2026-05-03 21:45 16.26697 62.46971 33785 ft 467 kts 303°
2026-05-03 21:45 16.30155 62.41253 33786 ft 467 kts 303°
2026-05-03 21:46 16.33636 62.35494 33785 ft 467 kts 303°
2026-05-03 21:46 16.37067 62.29811 33787 ft 467 kts 303°
2026-05-03 21:47 16.40520 62.24087 33787 ft 467 kts 303°
2026-05-03 21:47 16.43973 62.18361 33794 ft 467 kts 303°
2026-05-03 21:48 16.47426 62.12626 33795 ft 467 kts 303°
2026-05-03 21:48 16.50874 62.06897 33795 ft 467 kts 303°
2026-05-03 21:49 16.54326 62.01161 33794 ft 467 kts 303°
2026-05-03 21:49 16.57767 61.95433 33794 ft 466 kts 303°
2026-05-03 21:50 16.61211 61.89699 33795 ft 466 kts 303°
2026-05-03 21:50 16.64652 61.83966 33795 ft 466 kts 303°
2026-05-03 21:51 16.68089 61.78228 33795 ft 466 kts 303°
2026-05-03 21:51 16.71524 61.72495 33795 ft 466 kts 303°
2026-05-03 21:52 16.74935 61.66796 33794 ft 466 kts 303°
2026-05-03 21:52 16.78363 61.61064 33795 ft 465 kts 303°
2026-05-03 21:53 16.81789 61.55333 33795 ft 466 kts 303°
2026-05-03 21:53 16.85213 61.49599 33795 ft 465 kts 303°
2026-05-03 21:54 16.88628 61.43872 33795 ft 464 kts 303°
2026-05-03 21:54 16.92038 61.38153 33795 ft 464 kts 303°
2026-05-03 21:55 16.95446 61.32430 33794 ft 464 kts 303°
2026-05-03 21:55 16.98849 61.26712 33795 ft 464 kts 303°
2026-05-03 21:56 17.02252 61.20989 33795 ft 464 kts 303°
2026-05-03 21:56 17.05650 61.15269 33795 ft 463 kts 303°
2026-05-03 21:57 17.09052 61.09541 33795 ft 463 kts 303°
2026-05-03 21:57 17.12447 61.03815 33794 ft 463 kts 303°
2026-05-03 21:58 17.15839 60.98091 33803 ft 463 kts 303°
2026-05-03 21:58 17.19229 60.92365 33804 ft 463 kts 303°
2026-05-03 21:59 17.22618 60.86634 33804 ft 463 kts 303°
2026-05-03 21:59 17.26009 60.80897 33794 ft 463 kts 303°
2026-05-03 22:00 17.29393 60.75168 33794 ft 463 kts 303°
2026-05-03 22:00 17.32775 60.69434 33795 ft 463 kts 303°
2026-05-03 22:01 17.36155 60.63703 33804 ft 463 kts 303°
2026-05-03 22:01 17.39536 60.57965 33804 ft 463 kts 303°
2026-05-03 22:02 17.42911 60.52235 33804 ft 462 kts 303°
2026-05-03 22:02 17.46281 60.46504 33804 ft 462 kts 302°
2026-05-03 22:03 17.49625 60.40812 33804 ft 462 kts 302°
2026-05-03 22:03 17.52989 60.35079 33804 ft 462 kts 302°
2026-05-03 22:04 17.56349 60.29351 33804 ft 461 kts 302°
2026-05-03 22:04 17.59706 60.23623 33804 ft 461 kts 302°
2026-05-03 22:05 17.63061 60.17894 33804 ft 461 kts 302°
2026-05-03 22:05 17.66415 60.12161 33805 ft 461 kts 302°
2026-05-03 22:06 17.69764 60.06432 33804 ft 461 kts 302°
2026-05-03 22:06 17.73112 60.00703 33804 ft 461 kts 303°
2026-05-03 22:07 17.76603 59.95069 33804 ft 460 kts 304°
2026-05-03 22:07 17.80190 59.89508 33804 ft 460 kts 305°
2026-05-03 22:08 17.83779 59.83942 33804 ft 460 kts 304°
2026-05-03 22:08 17.87327 59.78401 33800 ft 460 kts 304°
2026-05-03 22:09 17.90890 59.72817 33795 ft 460 kts 304°
2026-05-03 22:10 17.96224 59.64434 33795 ft 460 kts 304°
2026-05-03 22:10 17.99781 59.58838 33796 ft 461 kts 304°
2026-05-03 22:11 18.03336 59.53242 33795 ft 461 kts 304°
2026-05-03 22:11 18.06889 59.47650 33795 ft 459 kts 304°
2026-05-03 22:12 18.10436 59.42061 33794 ft 459 kts 304°
2026-05-03 22:12 18.13977 59.36476 33795 ft 459 kts 304°
2026-05-03 22:13 18.17515 59.30891 33794 ft 459 kts 304°
2026-05-03 22:13 18.21050 59.25302 33795 ft 459 kts 304°
2026-05-03 22:14 18.24585 59.19712 33795 ft 459 kts 304°
2026-05-03 22:14 18.28121 59.14117 33795 ft 459 kts 304°
2026-05-03 22:15 18.31651 59.08525 33790 ft 459 kts 304°
2026-05-03 22:15 18.35183 59.02923 33785 ft 459 kts 304°
2026-05-03 22:16 18.38712 58.97324 33785 ft 459 kts 304°
2026-05-03 22:16 18.42241 58.91724 33785 ft 459 kts 304°
2026-05-03 22:17 18.45765 58.86120 33786 ft 459 kts 304°
2026-05-03 22:17 18.49265 58.80548 33787 ft 459 kts 304°
2026-05-03 22:18 18.52786 58.74941 33785 ft 459 kts 304°
2026-05-03 22:18 18.56305 58.69331 33785 ft 459 kts 304°
2026-05-03 22:19 18.59821 58.63718 33785 ft 459 kts 304°
2026-05-03 22:19 18.63333 58.58111 33785 ft 458 kts 304°
2026-05-03 22:20 18.66841 58.52507 33786 ft 458 kts 304°
2026-05-03 22:20 18.70344 58.46908 33785 ft 458 kts 304°
2026-05-03 22:21 18.74312 58.41674 33785 ft 457 kts 311°
2026-05-03 22:21 18.78562 58.36677 33781 ft 457 kts 313°
2026-05-03 22:22 18.82858 58.31733 33772 ft 457 kts 313°
2026-05-03 22:22 18.87152 58.26790 33782 ft 456 kts 313°
2026-05-03 22:23 18.91427 58.21844 33781 ft 456 kts 312°
2026-05-03 22:23 18.95696 58.16890 33782 ft 456 kts 312°
2026-05-03 22:24 18.99958 58.11942 33780 ft 455 kts 312°
2026-05-03 22:24 19.04212 58.06999 33780 ft 454 kts 312°
2026-05-03 22:25 19.08466 58.02060 33780 ft 454 kts 312°
2026-05-03 22:25 19.12705 57.97124 33770 ft 453 kts 312°
2026-05-03 22:26 19.16938 57.92184 33780 ft 453 kts 312°
2026-05-03 22:26 19.21171 57.87252 33764 ft 452 kts 312°
2026-05-03 22:27 19.25395 57.82326 33780 ft 452 kts 312°
2026-05-03 22:27 19.29619 57.77395 33780 ft 452 kts 312°
2026-05-03 22:28 19.33832 57.72470 33780 ft 451 kts 312°
2026-05-03 22:28 19.38043 57.67545 33781 ft 451 kts 312°
2026-05-03 22:29 19.42255 57.62618 33779 ft 451 kts 312°
2026-05-03 22:29 19.46456 57.57694 33781 ft 450 kts 312°
2026-05-03 22:30 19.50656 57.52769 33761 ft 450 kts 312°
2026-05-03 22:30 19.54147 57.48674 33780 ft 450 kts 312°
2026-05-03 22:31 19.58343 57.43748 33780 ft 450 kts 312°
2026-05-03 22:31 19.62536 57.38820 33778 ft 450 kts 312°
2026-05-03 22:32 19.66728 57.33888 33781 ft 450 kts 312°
2026-05-03 22:32 19.70921 57.28948 33779 ft 450 kts 312°
2026-05-03 22:33 19.75116 57.24007 33781 ft 451 kts 312°
2026-05-03 22:33 19.79317 57.19056 33779 ft 451 kts 312°
2026-05-03 22:34 19.83515 57.14102 33772 ft 451 kts 312°
2026-05-03 22:34 19.87711 57.09143 33781 ft 451 kts 312°
2026-05-03 22:35 19.91900 57.04187 33780 ft 451 kts 312°
2026-05-03 22:35 19.96098 56.99219 33781 ft 452 kts 311°
2026-05-03 22:36 20.00298 56.94249 33779 ft 452 kts 311°
2026-05-03 22:36 20.04491 56.89280 33781 ft 450 kts 311°
2026-05-03 22:37 20.08632 56.84367 33769 ft 448 kts 311°
2026-05-03 22:37 20.12793 56.79426 33780 ft 448 kts 311°
2026-05-03 22:38 20.16954 56.74480 33780 ft 449 kts 311°
2026-05-03 22:38 20.21115 56.69530 33780 ft 448 kts 311°
2026-05-03 22:39 20.25273 56.64573 33780 ft 449 kts 311°
2026-05-03 22:39 20.29436 56.59601 33766 ft 449 kts 311°
2026-05-03 22:40 20.33595 56.54630 33785 ft 449 kts 311°
2026-05-03 22:40 20.37757 56.49654 33785 ft 450 kts 311°
2026-05-03 22:41 20.41919 56.44672 33786 ft 450 kts 311°
2026-05-03 22:41 20.46075 56.39690 33785 ft 450 kts 311°
2026-05-03 22:42 20.50227 56.34705 33786 ft 449 kts 311°
2026-05-03 22:42 20.54383 56.29714 33785 ft 450 kts 311°
2026-05-03 22:43 20.58534 56.24722 33785 ft 450 kts 311°
2026-05-03 22:43 20.62684 56.19727 33785 ft 450 kts 311°
2026-05-03 22:44 20.66805 56.14764 33785 ft 450 kts 311°
2026-05-03 22:44 20.70951 56.09769 33785 ft 449 kts 311°
2026-05-03 22:45 20.75090 56.04777 33785 ft 448 kts 311°
2026-05-03 22:45 20.79226 55.99782 33785 ft 449 kts 310°
2026-05-03 22:46 20.83358 55.94788 33785 ft 449 kts 310°
2026-05-03 22:46 20.87505 55.89772 33785 ft 450 kts 310°
2026-05-03 22:47 20.91649 55.84756 33785 ft 450 kts 310°
2026-05-03 22:47 20.95786 55.79744 33785 ft 449 kts 310°
2026-05-03 22:48 20.99920 55.74733 33794 ft 449 kts 310°
2026-05-03 22:48 21.04043 55.69735 33796 ft 449 kts 310°
2026-05-03 22:49 21.08173 55.64720 33795 ft 448 kts 310°
2026-05-03 22:49 21.12245 55.59772 33795 ft 448 kts 310°
2026-05-03 22:50 21.16366 55.54759 33804 ft 448 kts 310°
2026-05-03 22:50 21.20481 55.49748 33804 ft 448 kts 310°
2026-05-03 22:51 21.24341 55.44533 33805 ft 446 kts 301°
2026-05-03 22:51 21.26725 55.38443 33804 ft 445 kts 283°
2026-05-03 22:52 21.27496 55.31865 33804 ft 446 kts 275°
2026-05-03 22:52 21.27872 55.25212 33804 ft 447 kts 274°
2026-05-03 22:53 21.28201 55.18554 33805 ft 447 kts 274°
2026-05-03 22:53 21.28562 55.11898 33804 ft 447 kts 274°
2026-05-03 22:54 21.28941 55.05292 33804 ft 447 kts 274°
2026-05-03 22:54 21.29324 54.98629 33805 ft 448 kts 274°
2026-05-03 22:55 21.29706 54.91969 33804 ft 447 kts 274°
2026-05-03 22:55 21.30084 54.85313 33804 ft 447 kts 274°
2026-05-03 22:56 21.30460 54.78658 33803 ft 447 kts 274°
2026-05-03 22:56 21.30831 54.71996 33804 ft 448 kts 274°
2026-05-03 22:57 21.31199 54.65336 33804 ft 447 kts 274°
2026-05-03 22:57 21.31563 54.58687 33804 ft 447 kts 274°
2026-05-03 22:58 21.31930 54.52030 33794 ft 447 kts 274°
2026-05-03 22:58 21.32295 54.45382 33795 ft 446 kts 274°
2026-05-03 22:59 21.32656 54.38741 33795 ft 446 kts 274°
2026-05-03 22:59 21.33013 54.32105 33795 ft 446 kts 274°
2026-05-03 23:00 21.33369 54.25469 33804 ft 446 kts 274°
2026-05-03 23:00 21.33722 54.18825 33804 ft 446 kts 274°
2026-05-03 23:01 21.34072 54.12190 33805 ft 446 kts 274°
2026-05-03 23:01 21.34419 54.05558 33803 ft 445 kts 274°
2026-05-03 23:02 21.34762 53.98933 33794 ft 445 kts 274°
2026-05-03 23:02 21.35102 53.92300 33795 ft 446 kts 274°
2026-05-03 23:03 21.35440 53.85658 33794 ft 446 kts 274°
2026-05-03 23:03 21.35774 53.79068 33794 ft 445 kts 274°
2026-05-03 23:04 21.36106 53.72439 33795 ft 445 kts 274°
2026-05-03 23:04 21.36434 53.65798 33813 ft 445 kts 274°
2026-05-03 23:05 21.36760 53.59163 33823 ft 446 kts 274°
2026-05-03 23:05 21.37084 53.52509 33822 ft 447 kts 273°
2026-05-03 23:06 21.37405 53.45855 33823 ft 446 kts 273°
2026-05-03 23:06 21.37723 53.39212 33823 ft 446 kts 273°
2026-05-03 23:07 21.38039 53.32562 33823 ft 447 kts 273°
2026-05-03 23:07 21.38354 53.25896 33822 ft 447 kts 273°
2026-05-03 23:08 21.38667 53.19231 33823 ft 447 kts 273°
2026-05-03 23:08 21.38976 53.12568 33823 ft 447 kts 273°
2026-05-03 23:09 21.39282 53.05914 33827 ft 441 kts 273°
2026-05-03 23:09 21.39576 52.99457 33835 ft 429 kts 273°
2026-05-03 23:10 21.39865 52.93071 33826 ft 429 kts 273°
2026-05-03 23:10 21.40152 52.86680 33822 ft 429 kts 273°
2026-05-03 23:11 21.40438 52.80287 33822 ft 429 kts 273°
2026-05-03 23:11 21.40721 52.73892 33823 ft 429 kts 272°
2026-05-03 23:12 21.40999 52.67498 33823 ft 429 kts 272°
2026-05-03 23:12 21.41274 52.61147 33822 ft 429 kts 272°
2026-05-03 23:13 21.41546 52.54749 33823 ft 429 kts 272°
2026-05-03 23:13 21.41817 52.48356 33823 ft 429 kts 272°
2026-05-03 23:14 21.42088 52.41966 33823 ft 428 kts 272°
2026-05-03 23:14 21.42352 52.35588 33822 ft 428 kts 272°
2026-05-03 23:15 21.42616 52.29208 33822 ft 428 kts 272°
2026-05-03 23:15 21.42874 52.22832 33822 ft 428 kts 272°
2026-05-03 23:16 21.43131 52.16454 33823 ft 428 kts 272°
2026-05-03 23:16 21.43387 52.10068 33823 ft 428 kts 272°
2026-05-03 23:17 21.43641 52.03688 33829 ft 428 kts 272°
2026-05-03 23:17 21.43891 51.97313 33830 ft 428 kts 272°
2026-05-03 23:18 21.44140 51.90928 33830 ft 428 kts 272°
2026-05-03 23:18 21.44386 51.84545 33835 ft 428 kts 272°
2026-05-03 23:19 21.44589 51.79240 33834 ft 428 kts 272°
2026-05-03 23:19 21.44829 51.72856 33830 ft 428 kts 272°
2026-05-03 23:20 21.45068 51.66476 33830 ft 428 kts 272°
2026-05-03 23:20 21.45306 51.60089 33829 ft 428 kts 272°
2026-05-03 23:21 21.45543 51.53701 33841 ft 429 kts 272°
2026-05-03 23:21 21.45777 51.47305 33841 ft 429 kts 272°
2026-05-03 23:22 21.46122 51.37698 33841 ft 429 kts 271°
2026-05-03 23:22 21.46350 51.31299 33841 ft 429 kts 272°
2026-05-03 23:23 21.46576 51.24899 33858 ft 429 kts 271°
2026-05-03 23:23 21.46799 51.18493 33860 ft 429 kts 271°
2026-05-03 23:24 21.47020 51.12089 33860 ft 430 kts 271°
2026-05-03 23:24 21.47237 51.05673 33860 ft 430 kts 271°
2026-05-03 23:25 21.47453 50.99252 33860 ft 430 kts 271°
2026-05-03 23:25 21.47667 50.92832 33860 ft 430 kts 271°
2026-05-03 23:26 21.47875 50.86459 33860 ft 430 kts 271°
2026-05-03 23:26 21.48085 50.80040 33860 ft 430 kts 271°
2026-05-03 23:27 21.48293 50.73616 33860 ft 431 kts 271°
2026-05-03 23:27 21.48496 50.67193 33860 ft 430 kts 271°
2026-05-03 23:28 21.48697 50.60772 33860 ft 430 kts 271°
2026-05-03 23:28 21.48897 50.54355 33860 ft 430 kts 271°
2026-05-03 23:29 21.49093 50.47943 33899 ft 430 kts 271°
2026-05-03 23:29 21.49285 50.41535 33897 ft 430 kts 271°
2026-05-03 23:30 21.49475 50.35121 33893 ft 430 kts 271°
2026-05-03 23:30 21.49665 50.28708 33899 ft 430 kts 271°
2026-05-03 23:31 21.49852 50.22296 33899 ft 430 kts 271°
2026-05-03 23:31 21.50036 50.15885 33897 ft 429 kts 271°
2026-05-03 23:32 21.50378 50.09492 33900 ft 430 kts 278°
2026-05-03 23:32 21.52035 50.03320 33900 ft 432 kts 288°
2026-05-03 23:33 21.54213 49.97304 33896 ft 433 kts 290°
2026-05-03 23:33 21.56481 49.91316 33898 ft 433 kts 290°
2026-05-03 23:34 21.58738 49.85318 33898 ft 433 kts 290°
2026-05-03 23:34 21.60977 49.79309 33898 ft 433 kts 289°
2026-05-03 23:35 21.63202 49.73303 33905 ft 433 kts 289°
2026-05-03 23:35 21.65424 49.67285 33905 ft 433 kts 289°
2026-05-03 23:36 21.67643 49.61263 33906 ft 433 kts 289°
2026-05-03 23:36 21.69862 49.55245 33909 ft 433 kts 289°
2026-05-03 23:37 21.72082 49.49221 33908 ft 433 kts 289°
2026-05-03 23:37 21.74285 49.43236 33911 ft 433 kts 289°
2026-05-03 23:38 21.76498 49.37214 33915 ft 433 kts 289°
2026-05-03 23:38 21.78714 49.31176 33916 ft 434 kts 289°
2026-05-03 23:39 21.80929 49.25131 33916 ft 434 kts 289°
2026-05-03 23:39 21.83141 49.19086 33918 ft 434 kts 289°
2026-05-03 23:40 21.85350 49.13040 33917 ft 434 kts 289°
2026-05-03 23:40 21.87562 49.06983 33915 ft 434 kts 289°
2026-05-03 23:41 21.89767 49.00932 33914 ft 434 kts 289°
2026-05-03 23:41 21.91973 48.94873 33914 ft 435 kts 289°
2026-05-03 23:42 21.94174 48.88814 33917 ft 435 kts 289°
2026-05-03 23:42 21.96378 48.82749 33925 ft 435 kts 289°
2026-05-03 23:43 21.98578 48.76680 33925 ft 435 kts 289°
2026-05-03 23:43 22.00780 48.70606 33925 ft 435 kts 289°
2026-05-03 23:44 22.02971 48.64552 33925 ft 432 kts 289°
2026-05-03 23:44 22.05143 48.58528 33925 ft 431 kts 289°
2026-05-03 23:45 22.07318 48.52498 33925 ft 432 kts 289°
2026-05-03 23:45 22.09495 48.46458 33924 ft 432 kts 289°
2026-05-03 23:46 22.11670 48.40412 33935 ft 433 kts 289°
2026-05-03 23:46 22.13843 48.34362 33933 ft 433 kts 289°
2026-05-03 23:47 22.16016 48.28306 33933 ft 433 kts 289°
2026-05-03 23:47 22.18185 48.22250 33935 ft 433 kts 289°
2026-05-03 23:48 22.20352 48.16188 33934 ft 433 kts 289°
2026-05-03 23:48 22.22517 48.10116 33934 ft 434 kts 289°
2026-05-03 23:49 22.24689 48.04035 33934 ft 434 kts 289°
2026-05-03 23:49 22.26854 47.97958 33934 ft 434 kts 288°
2026-05-03 23:50 22.28650 47.92907 33935 ft 434 kts 288°
2026-05-03 23:50 22.31159 47.85842 33933 ft 433 kts 288°
2026-05-03 23:51 22.33312 47.79774 33933 ft 433 kts 288°
2026-05-03 23:51 22.35460 47.73706 33934 ft 433 kts 288°
2026-05-03 23:52 22.37610 47.67634 33933 ft 433 kts 288°
2026-05-03 23:52 22.39755 47.61563 33933 ft 432 kts 288°
2026-05-03 23:53 22.41895 47.55494 33941 ft 432 kts 288°
2026-05-03 23:53 22.44029 47.49440 33961 ft 431 kts 288°
2026-05-03 23:54 22.46163 47.43376 33965 ft 431 kts 288°
2026-05-03 23:54 22.48292 47.37319 33964 ft 431 kts 288°
2026-05-03 23:55 22.50418 47.31261 33964 ft 430 kts 288°
2026-05-03 23:55 22.52538 47.25213 33965 ft 430 kts 288°
2026-05-03 23:56 22.54654 47.19167 33961 ft 430 kts 288°
2026-05-03 23:56 22.56770 47.13115 33966 ft 430 kts 288°
2026-05-03 23:57 22.58870 47.07107 33959 ft 430 kts 288°
2026-05-03 23:57 22.60983 47.01050 33957 ft 430 kts 288°
2026-05-03 23:58 22.63089 46.95001 33961 ft 430 kts 288°
2026-05-03 23:58 22.65194 46.88949 33964 ft 430 kts 288°
2026-05-03 23:59 22.67298 46.82895 33964 ft 429 kts 288°
2026-05-03 23:59 22.69396 46.76848 33966 ft 429 kts 288°
2026-05-04 00:00 22.71489 46.70801 33966 ft 429 kts 288°
2026-05-04 00:00 22.73581 46.64756 33961 ft 428 kts 288°
2026-05-04 00:01 22.75670 46.58711 33962 ft 429 kts 288°
2026-05-04 00:01 22.77757 46.52664 33959 ft 428 kts 288°
2026-05-04 00:02 22.79840 46.46617 33963 ft 428 kts 288°
2026-05-04 00:02 22.81810 46.40536 33962 ft 426 kts 282°
2026-05-04 00:03 22.82695 46.34213 33962 ft 424 kts 274°
2026-05-04 00:03 22.83205 46.27846 33963 ft 424 kts 273°
2026-05-04 00:04 22.83642 46.21467 33957 ft 424 kts 272°
2026-05-04 00:04 22.84084 46.15136 33964 ft 424 kts 273°
2026-05-04 00:05 22.84542 46.08758 33967 ft 424 kts 273°
2026-05-04 00:05 22.85004 46.02384 33966 ft 424 kts 273°
2026-05-04 00:06 22.85466 45.96003 33963 ft 424 kts 273°
2026-05-04 00:06 22.85923 45.89631 33963 ft 424 kts 273°
2026-05-04 00:07 22.86378 45.83262 33970 ft 423 kts 273°
2026-05-04 00:07 22.86755 45.77931 33973 ft 423 kts 273°
2026-05-04 00:08 22.87275 45.70542 33976 ft 423 kts 273°
2026-05-04 00:08 22.87648 45.65209 33974 ft 423 kts 273°
2026-05-04 00:09 22.88087 45.58887 33970 ft 423 kts 272°
2026-05-04 00:09 22.88529 45.52533 33975 ft 422 kts 272°
2026-05-04 00:10 22.88968 45.46177 33981 ft 422 kts 272°
2026-05-04 00:10 22.89404 45.39830 33980 ft 421 kts 272°
2026-05-04 00:11 22.89834 45.33512 33980 ft 420 kts 272°
2026-05-04 00:11 22.90260 45.27202 33981 ft 420 kts 272°
2026-05-04 00:12 22.90687 45.20895 33980 ft 419 kts 272°
2026-05-04 00:12 22.91107 45.14603 33988 ft 418 kts 272°
2026-05-04 00:13 22.91524 45.08305 33990 ft 418 kts 272°
2026-05-04 00:13 22.91939 45.02013 33988 ft 418 kts 272°
2026-05-04 00:14 22.92353 44.95715 33989 ft 418 kts 272°
2026-05-04 00:14 22.92762 44.89430 33991 ft 418 kts 272°
2026-05-04 00:15 22.93167 44.83147 33990 ft 418 kts 272°
2026-05-04 00:15 22.93572 44.76859 33995 ft 418 kts 272°
2026-05-04 00:16 22.93974 44.70578 33998 ft 417 kts 272°
2026-05-04 00:16 22.95078 44.64389 33999 ft 420 kts 283°
2026-05-04 00:17 22.96840 44.58336 33999 ft 421 kts 285°
2026-05-04 00:17 22.98709 44.52360 33998 ft 421 kts 286°
2026-05-04 00:18 23.00592 44.46343 33999 ft 421 kts 285°
2026-05-04 00:18 23.02458 44.40319 33998 ft 421 kts 285°
2026-05-04 00:19 23.04311 44.34294 33998 ft 420 kts 285°
2026-05-04 00:19 23.06155 44.28274 33999 ft 420 kts 285°
2026-05-04 00:20 23.08001 44.22246 33999 ft 420 kts 285°
2026-05-04 00:20 23.09843 44.16230 33999 ft 420 kts 285°
2026-05-04 00:21 23.11678 44.10216 34009 ft 420 kts 285°
2026-05-04 00:21 23.13512 44.04204 33999 ft 419 kts 285°
2026-05-04 00:22 23.15344 43.98193 33997 ft 419 kts 285°
2026-05-04 00:22 23.17174 43.92188 33998 ft 418 kts 285°
2026-05-04 00:23 23.18991 43.86196 33999 ft 418 kts 285°
2026-05-04 00:23 23.20808 43.80202 33999 ft 418 kts 285°
2026-05-04 00:24 23.22625 43.74204 34004 ft 418 kts 284°
2026-05-04 00:24 23.24440 43.68198 34007 ft 418 kts 284°
2026-05-04 00:25 23.26249 43.62203 34008 ft 417 kts 284°
2026-05-04 00:25 23.28054 43.56213 34005 ft 417 kts 284°
2026-05-04 00:26 23.29855 43.50224 34009 ft 417 kts 284°
2026-05-04 00:26 23.31657 43.44225 34008 ft 417 kts 284°
2026-05-04 00:27 23.33443 43.38273 34016 ft 417 kts 284°
2026-05-04 00:27 23.35241 43.32278 34017 ft 417 kts 284°
2026-05-04 00:28 23.37034 43.26283 34028 ft 417 kts 284°
2026-05-04 00:28 23.38826 43.20282 34026 ft 417 kts 284°
2026-05-04 00:29 23.40611 43.14298 34024 ft 416 kts 284°
2026-05-04 00:29 23.42399 43.08288 34031 ft 416 kts 284°
2026-05-04 00:30 23.44177 43.02291 34023 ft 416 kts 284°
2026-05-04 00:30 23.45953 42.96296 34024 ft 416 kts 284°
2026-05-04 00:31 23.47726 42.90297 34031 ft 415 kts 284°
2026-05-04 00:31 23.49493 42.84303 34029 ft 416 kts 284°
2026-05-04 00:32 23.51259 42.78314 34031 ft 416 kts 284°
2026-05-04 00:32 23.53027 42.72310 34028 ft 415 kts 284°
2026-05-04 00:33 23.55658 42.63371 34024 ft 415 kts 284°
2026-05-04 00:34 23.57418 42.57385 34049 ft 414 kts 284°
2026-05-04 00:34 23.59174 42.51403 34046 ft 414 kts 284°
2026-05-04 00:35 23.60923 42.45428 34046 ft 414 kts 283°
2026-05-04 00:35 23.62673 42.39444 34044 ft 414 kts 283°
2026-05-04 00:36 23.64418 42.33466 34046 ft 413 kts 283°
2026-05-04 00:36 23.66159 42.27494 34045 ft 413 kts 283°
2026-05-04 00:37 23.67892 42.21523 34044 ft 413 kts 283°
2026-05-04 00:37 23.69619 42.15558 34046 ft 412 kts 283°
2026-05-04 00:38 23.71344 42.09591 34045 ft 412 kts 283°
2026-05-04 00:38 23.73069 42.03617 34046 ft 413 kts 283°
2026-05-04 00:39 23.74793 41.97644 34046 ft 413 kts 283°
2026-05-04 00:39 23.76516 41.91679 34047 ft 412 kts 283°
2026-05-04 00:40 23.78239 41.85716 34045 ft 412 kts 283°
2026-05-04 00:40 23.79961 41.79751 34045 ft 412 kts 283°
2026-05-04 00:41 23.81677 41.73787 34029 ft 412 kts 283°
2026-05-04 00:41 23.82525 41.70827 33928 ft 419 kts 283°
2026-05-04 00:41 23.83405 41.67740 33667 ft 432 kts 283°
2026-05-04 00:41 23.84305 41.64586 33417 ft 437 kts 283°
2026-05-04 00:42 23.85214 41.61416 33176 ft 437 kts 283°
2026-05-04 00:42 23.86124 41.58246 32913 ft 437 kts 283°
2026-05-04 00:42 23.87030 41.55086 32497 ft 434 kts 283°
2026-05-04 00:42 23.87925 41.51955 31878 ft 433 kts 283°
2026-05-04 00:43 23.88822 41.48803 31205 ft 433 kts 283°
2026-05-04 00:43 23.89714 41.45665 30725 ft 429 kts 283°
2026-05-04 00:43 23.90591 41.42572 30309 ft 424 kts 283°
2026-05-04 00:43 23.91459 41.39517 29864 ft 419 kts 283°
2026-05-04 00:44 23.92316 41.36495 29427 ft 414 kts 283°
2026-05-04 00:44 23.93165 41.33497 28988 ft 410 kts 283°
2026-05-04 00:44 23.94005 41.30533 28555 ft 406 kts 283°
2026-05-04 00:44 23.94837 41.27600 28123 ft 402 kts 283°
2026-05-04 00:45 23.95660 41.24697 27692 ft 398 kts 283°
2026-05-04 00:45 23.96475 41.21821 27264 ft 394 kts 283°
2026-05-04 00:45 23.97281 41.18968 26832 ft 391 kts 283°
2026-05-04 00:45 23.98079 41.16140 26399 ft 388 kts 283°
2026-05-04 00:46 23.98874 41.13323 25982 ft 387 kts 283°
2026-05-04 00:46 23.99665 41.10518 25563 ft 386 kts 283°
2026-05-04 00:46 24.00454 41.07718 25136 ft 384 kts 283°
2026-05-04 00:46 24.01239 41.04932 24697 ft 381 kts 283°
2026-05-04 00:47 24.02015 41.02176 24274 ft 378 kts 283°
2026-05-04 00:47 24.02786 40.99439 23853 ft 376 kts 284°
2026-05-04 00:47 24.03551 40.96716 23427 ft 374 kts 284°
2026-05-04 00:47 24.04312 40.93999 23014 ft 373 kts 284°
2026-05-04 00:48 24.05069 40.91297 22597 ft 370 kts 284°
2026-05-04 00:48 24.05821 40.88612 22186 ft 368 kts 284°
2026-05-04 00:48 24.06568 40.85944 21775 ft 366 kts 284°
2026-05-04 00:48 24.07312 40.83287 21366 ft 364 kts 284°
2026-05-04 00:49 24.08050 40.80648 20956 ft 362 kts 284°
2026-05-04 00:49 24.08786 40.78016 20543 ft 360 kts 284°
2026-05-04 00:49 24.09517 40.75402 20133 ft 359 kts 284°
2026-05-04 00:49 24.10244 40.72798 19733 ft 357 kts 284°
2026-05-04 00:50 24.10968 40.70203 19319 ft 355 kts 284°
2026-05-04 00:50 24.11687 40.67625 18930 ft 354 kts 284°
2026-05-04 00:50 24.12402 40.65059 18525 ft 352 kts 284°
2026-05-04 00:50 24.13114 40.62501 18123 ft 350 kts 284°
2026-05-04 00:51 24.13822 40.59957 17724 ft 349 kts 284°
2026-05-04 00:51 24.14526 40.57425 17309 ft 347 kts 284°
2026-05-04 00:51 24.15229 40.54897 16904 ft 346 kts 284°
2026-05-04 00:51 24.15908 40.52372 16494 ft 345 kts 281°
2026-05-04 00:52 24.16300 40.49796 16082 ft 342 kts 274°
2026-05-04 00:52 24.16515 40.47210 15684 ft 340 kts 272°
2026-05-04 00:52 24.16697 40.44627 15273 ft 340 kts 272°
2026-05-04 00:52 24.16878 40.42049 14860 ft 339 kts 272°
2026-05-04 00:53 24.17063 40.39475 14479 ft 339 kts 272°
2026-05-04 00:53 24.17246 40.36908 14056 ft 338 kts 272°
2026-05-04 00:53 24.17428 40.34347 13652 ft 337 kts 273°
2026-05-04 00:53 24.17614 40.31786 13246 ft 337 kts 273°
2026-05-04 00:54 24.17736 40.30094 12976 ft 336 kts 273°
2026-05-04 00:54 24.17918 40.27547 12569 ft 336 kts 273°
2026-05-04 00:54 24.18162 40.24173 12023 ft 335 kts 273°
2026-05-04 00:54 24.18346 40.21634 11614 ft 334 kts 274°
2026-05-04 00:55 24.18528 40.19103 11196 ft 333 kts 274°
2026-05-04 00:55 24.18706 40.16606 10977 ft 324 kts 274°
2026-05-04 00:55 24.18877 40.14200 10900 ft 310 kts 274°
2026-05-04 00:55 24.19040 40.11900 10773 ft 297 kts 274°
2026-05-04 00:56 24.19147 40.10387 10666 ft 292 kts 274°
2026-05-04 00:56 24.19301 40.08206 10545 ft 283 kts 275°
2026-05-04 00:56 24.19454 40.06077 10341 ft 278 kts 275°
2026-05-04 00:56 24.19606 40.03955 10018 ft 280 kts 275°
2026-05-04 00:57 24.19755 40.01836 9711 ft 278 kts 276°
2026-05-04 00:57 24.19904 39.99730 9431 ft 276 kts 276°
2026-05-04 00:57 24.20184 39.97708 9346 ft 261 kts 290°
2026-05-04 00:57 24.20515 39.95806 9260 ft 252 kts 274°
2026-05-04 00:58 24.20558 39.93911 9130 ft 245 kts 274°
2026-05-04 00:58 24.20591 39.92063 9025 ft 242 kts 274°
2026-05-04 00:58 24.20647 39.90216 8851 ft 244 kts 273°
2026-05-04 00:58 24.20498 39.88360 8602 ft 245 kts 264°
2026-05-04 00:59 24.20187 39.86552 8365 ft 244 kts 262°
2026-05-04 00:59 24.19851 39.84738 8125 ft 243 kts 262°
2026-05-04 00:59 24.19517 39.82927 7895 ft 242 kts 262°
2026-05-04 00:59 24.19338 39.81115 7654 ft 237 kts 277°
2026-05-04 01:00 24.19817 39.79438 7433 ft 231 kts 305°
2026-05-04 01:00 24.20975 39.78258 7207 ft 229 kts 333°
2026-05-04 01:00 24.22482 39.77724 7024 ft 228 kts 347°
2026-05-04 01:00 24.24046 39.77410 6987 ft 230 kts 348°
2026-05-04 01:01 24.25616 39.77096 6988 ft 229 kts 348°
2026-05-04 01:01 24.27168 39.76786 7017 ft 220 kts 348°
2026-05-04 01:01 24.28619 39.76499 7015 ft 203 kts 348°
2026-05-04 01:01 24.29968 39.76223 6895 ft 193 kts 347°
2026-05-04 01:02 24.31274 39.75941 6657 ft 191 kts 347°
2026-05-04 01:02 24.32579 39.75660 6338 ft 192 kts 347°
2026-05-04 01:02 24.33892 39.75382 6032 ft 192 kts 347°
2026-05-04 01:02 24.35200 39.75104 5761 ft 190 kts 347°
2026-05-04 01:03 24.36491 39.74830 5500 ft 187 kts 347°
2026-05-04 01:03 24.37743 39.74564 5251 ft 178 kts 347°
2026-05-04 01:03 24.38926 39.74312 5019 ft 168 kts 347°
2026-05-04 01:03 24.40036 39.74077 4792 ft 158 kts 348°
2026-05-04 01:04 24.41114 39.73848 4606 ft 158 kts 348°
2026-05-04 01:04 24.42199 39.73615 4397 ft 159 kts 349°
2026-05-04 01:04 24.43287 39.73384 4184 ft 159 kts 350°
2026-05-04 01:04 24.44363 39.73156 3969 ft 157 kts 350°
2026-05-04 01:05 24.45422 39.72929 3772 ft 154 kts 350°
2026-05-04 01:05 24.46472 39.72706 3558 ft 153 kts 349°
2026-05-04 01:05 24.47511 39.72482 3358 ft 152 kts 348°
2026-05-04 01:05 24.48541 39.72262 3136 ft 150 kts 349°
2026-05-04 01:06 24.49560 39.72038 2922 ft 149 kts 349°
2026-05-04 01:06 24.50577 39.71826 2726 ft 148 kts 350°
2026-05-04 01:06 24.51589 39.71615 2523 ft 148 kts 349°
2026-05-04 01:06 24.52583 39.71406 2335 ft 147 kts 350°
2026-05-04 01:07 24.53588 39.71199 2145 ft 147 kts 349°
2026-05-04 01:07 24.54559 39.70991 2083 ft 127 kts 349°
2026-05-04 01:07 24.55232 39.70845 2093 ft 70 kts 348°
2026-05-04 01:07 24.55559 39.70775 2098 ft 40 kts 349°
2026-05-04 01:08 24.55821 39.70719 2104 ft 37 kts 349°
2026-05-04 01:08 24.56050 39.70685 2111 ft 27 kts
2026-05-04 01:08 24.56184 39.70713 2114 ft 15 kts 14°
2026-05-04 01:08 24.56267 39.70753 2117 ft 12 kts 51°
2026-05-04 01:09 24.56246 39.70815 2117 ft 10 kts 150°
2026-05-04 01:09 24.56172 39.70836 2115 ft 13 kts 170°
2026-05-04 01:09 24.56076 39.70856 2113 ft 15 kts 169°
2026-05-04 01:09 24.56002 39.70909 2111 ft 12 kts 101°
2026-05-04 01:10 24.56010 39.70989 2112 ft 10 kts 81°
2026-05-04 01:10 24.56001 39.71059 2113 ft 9 kts 131°
2026-05-04 01:10 24.55934 39.71085 2111 ft 12 kts 169°
2026-05-04 01:10 24.55845 39.71103 2109 ft 15 kts 169°
2026-05-04 01:11 24.55758 39.71121 2107 ft 11 kts 169°
2026-05-04 01:11 24.55677 39.71138 2106 ft 11 kts 169°
2026-05-04 01:11 24.55629 39.71148 2105 ft 5 kts 169°
2026-05-04 01:11 24.55610 39.71152 2104 ft 4 kts 169°
2026-05-04 01:12 24.55593 39.71165 2104 ft 1 kts 120°
2026-05-04 01:12 24.55594 39.71177 2104 ft 4 kts 89°
2026-05-04 01:12 24.55600 39.71207 2104 ft 4 kts 78°
2026-05-04 01:12 24.55605 39.71233 2105 ft 3 kts 78°
2026-05-04 01:13 24.55608 39.71252 2105 ft 2 kts 79°
2026-05-04 01:13 24.55610 39.71262 2105 ft 0 kts 79°